Weather observations for the past three days for
Bar Harbor, Hancock County-Bar Harbor Airport
Metric (Imperial)
Date Time (edt) Wind (kph) Vis. (km) Weather Sky Cond. Temperature (ºC) Relative Humidity Wind Chill (°C) Heat Index (°C) Pressure Precipitation (cm)
Air Dwpt 6 hour altimeter (cm) sea level (mb) 1 hr 3 hr 6 hr
Max. Min.
02 22:56 Calm 16.09 Mostly Cloudy SCT008 BKN080 14.4 13.9 97% 76.63 1021.8
02 21:56 Calm 16.09 Fair CLR 13.3 12.8 97% 76.63 1021.8
02 20:56 E 7 16.09 Fair CLR 13.9 13.3 96% 76.63 1021.8
02 18:56 E 11 16.09 Fair CLR 15.6 12.8 84% 76.68 1022.4
02 17:56 E 9 16.09 Fair CLR 16.7 12.8 78% 76.68 1022.5
02 16:56 Vrbl 11 16.09 Fair CLR 17.8 12.2 70% 76.71 1022.7
02 15:56 E 11 16.09 Fair CLR 19.4 11.1 59% 76.73 1023.2
02 14:56 SE 11 16.09 Fair CLR 20 11.1 57% 76.73 1023.0
02 13:56 E 11 16.09 Fair CLR 20.6 11.7 20.6 15 57% 76.73 1023.3
02 12:56 E 17 16.09 Fair CLR 20.6 11.7 57% 76.78 1023.7
02 11:56 E 13 16.09 Fair CLR 20 11.7 59% 76.78 1023.9
02 10:56 E 13 16.09 Fair CLR 19.4 12.8 66% 76.78 1023.9
02 09:56 E 9 16.09 Fair CLR 18.3 13.3 73% 76.78 1024.0
02 05:56 N 9 16.09 Fair CLR 10 10 100% 9 76.76 1023.4
02 04:56 N 6 16.09 Fair CLR 9.4 8.9 97% 76.76 1023.3
02 03:56 N 6 16.09 Fair CLR 10 9.4 96% 76.73 1023.0
02 02:56 N 7 16.09 Fair CLR 10.6 10 96% 76.68 1022.5
02 01:56 N 6 16.09 Fair CLR 10.6 10 15 10.6 96% 76.68 1022.4
01 23:56 Calm 16.09 Fair CLR 11.1 11.1 100% 76.61 1021.4
01 20:56 Calm 16.09 Fair CLR 13.9 11.7 87% 76.56 1020.7
01 19:56 Calm 16.09 Fair CLR 15 12.2 22.8 15 83% 76.53 1020.5
01 18:56 E 7 16.09 Fair CLR 18.3 11.7 66% 76.48 1019.9
01 16:56 Vrbl 6 16.09 Fair CLR 21.1 11.1 53% 76.43 1019.1
01 15:56 E 13 G 26 16.09 Fair CLR 21.1 10.6 51% 76.43 1019.2
01 14:56 E 17 16.09 Fair CLR 22.2 11.1 50% 76.4 1018.9
01 12:56 E 17 16.09 Fair CLR 21.7 12.8 57% 76.4 1018.8
01 10:56 E 7 16.09 Fair CLR 21.7 12.2 55% 76.43 1019.2
01 08:56 SE 6 16.09 A Few Clouds FEW070 17.8 12.8 73% 76.43 1019.1
01 07:56 N 7 16.09 Overcast OVC070 13.9 11.7 13.9 8.9 87% 76.4 1018.9
01 06:56 N 6 16.09 Fair CLR 11.1 10.6 97% 76.4 1018.6
01 05:56 N 7 16.09 Fair CLR 8.9 8.9 100% 8 76.38 1018.3
01 04:56 Calm 16.09 Fair CLR 8.9 8.9 100% 76.38 1018.4
01 03:56 Calm 16.09 Fair CLR 10 9.4 96% 76.4 1018.6
01 02:56 W 6 16.09 Fair CLR 10.6 10 96% 76.38 1018.5
01 01:56 N 6 16.09 Fair CLR 10 8.9 17.2 10 93% 76.38 1018.4
31 23:56 Calm 16.09 Fair CLR 12.2 9.4 83% 76.4 1018.7
31 20:56 Calm 16.09 Fair CLR 16.1 9.4 65% 76.4 0.0
31 18:56 SW 9 16.09 Fair CLR 18.3 12.2 68% 76.35 0.0
31 17:56 S 20 16.09 Fair CLR 20 12.2 61% 76.33 0.0
31 15:56 NW 9 16.09 Fair CLR 23.9 8.3 37% 25 76.33 0.0
31 14:56 SW 19 16.09 Fair CLR 23.3 8.3 38% 76.35 0.0
31 13:56 SW 15 16.09 Fair CLR 22.2 9.4 44% 76.38 0.0
31 12:56 Vrbl 9 16.09 Fair CLR 21.7 10.6 49% 76.4 0.0
31 11:56 W 15 16.09 A Few Clouds FEW040 20.6 11.1 55% 76.45 0.0
31 10:56 Vrbl 11 16.09 Fair CLR 19.4 11.1 59% 76.48 0.0
31 09:56 NW 7 16.09 NULL NULL 17.8 11.7 68% 76.45 0.0
31 08:56 Vrbl 9 16.09 Fair CLR 16.1 11.7 75% 76.45 0.0
31 06:56 Vrbl 6 16.09 Fair CLR 12.2 11.1 93% 76.4 0.0
31 05:56 N 7 16.09 Fair CLR 11.1 10.6 97% 76.35 0.0
31 04:56 NW 6 16.09 Fair CLR 11.1 11.1 100% 76.33 0.0
31 03:56 Vrbl 6 16.09 Fair CLR 12.2 11.7 97% 76.33 0.0
31 02:56 NW 9 16.09 Fair CLR 13.3 12.2 93% 76.25 0.0
30 23:56 Vrbl 6 16.09 Fair CLR 15.6 15 96% 76.15 0.0
Date Time (edt) Wind (kph) Vis. (km) Weather Sky Cond. Air Dwpt Max. Min. Relative Humidity Wind Chill (°C) Heat Index (°C) altimeter (cm) sea level (mb) 1 hr 3 hr 6 hr
6 hour
Temperature (ºC) Pressure Precipitation (cm)